Copper Mountain, CO

4:38 PM MST on December 17, 2017 (GMT -0700)
Copper Mountain

Weather History for KCCU - September, 2013

Change the Weather History Date:

Saturday, September 21, 2013

  Actual Average Record
Temperature  
Mean Temperature 52 °F -  
Max Temperature 59 °F - 64 °F (2015)
Min Temperature 44 °F - 24 °F (2006)
Degree Days  
Heating Degree Days 14    
Month to date heating degree days  
Cooling Degree Days 0    
Month to date cooling degree days  
Growing Degree Days 2 (Base 50)    
Moisture  
Dew Point 26 °F    
Average Humidity 40    
Maximum Humidity 50    
Minimum Humidity 25    
Precipitation  
Precipitation 0.00 in - 0.43 in (2004)
Sea Level Pressure  
Sea Level Pressure 30.44 in    
Wind  
Wind Speed 13 mph (SW)    
Max Wind Speed 22 mph    
Max Gust Speed 33 mph    
Visibility 10 miles    
Events      
T = Trace of Precipitation, MM = Missing Value Source: NWS Daily Summary

Daily Weather History Graph

Daily Weather History Graph

Search for Another Location

Airport or City:

Trip Planner

Search our weather history database for the weather conditions in past years. The results will help you decide how hot, cold, wet, or windy it might be!

Date:

Astronomy

Sep. 21, 2013 Rise Set
Actual Time 6:51 AM MDT 7:02 PM MDT
Civil Twilight 6:24 AM MDT 7:29 PM MDT
Nautical Twilight 5:53 AM MDT 8:00 PM MDT
Astronomical Twilight 5:21 AM MDT 8:32 PM MDT
Moon 8:16 PM MDT (9/21) 9:12 AM MDT (9/21)
Length of Visible Light 13h 04m
Length of Day
12h 11m
Waning Gibbous, 94% of the Moon is Illuminated
Sep 21
Waning Gibbous
Sep 26
Last Quarter
Oct 4
New
Oct 11
First Quarter
Oct 18
Full

Hourly Weather History & Observations

Time (MDT) Temp. Windchill Dew Point Humidity Pressure Visibility Wind Dir Wind Speed Gust Speed Precip Events Conditions
12:14 AM 44.6 °F 39.7 °F 10.4 °F 25% 30.50 in 10.0 mi SW 9.2 mph 17.3 mph N/A   Clear
12:34 AM 46.4 °F 42.4 °F 12.2 °F 25% 30.50 in 10.0 mi SW 8.1 mph - N/A   Clear
12:54 AM 44.6 °F 39.7 °F 15.8 °F 31% 30.50 in 10.0 mi SW 9.2 mph 18.4 mph N/A   Clear
1:14 AM 44.6 °F 39.2 °F 21.2 °F 39% 30.50 in 10.0 mi SW 10.4 mph 21.9 mph N/A   Clear
1:34 AM 46.4 °F 42.4 °F 23.0 °F 40% 30.49 in 10.0 mi SSW 8.1 mph 16.1 mph N/A   Clear
1:54 AM 46.4 °F 42.4 °F 24.8 °F 43% 30.49 in 10.0 mi SSW 8.1 mph - N/A   Clear
2:14 AM 44.6 °F 40.7 °F 24.8 °F 46% 30.49 in 10.0 mi SW 6.9 mph 18.4 mph N/A   Clear
2:34 AM 44.6 °F 38.8 °F 23.0 °F 43% 30.49 in 10.0 mi SW 11.5 mph 16.1 mph N/A   Clear
2:54 AM 44.6 °F 38.8 °F 26.6 °F 49% 30.48 in 10.0 mi SW 11.5 mph 18.4 mph N/A   Clear
3:14 AM 44.6 °F 38.4 °F 24.8 °F 46% 30.48 in 10.0 mi SW 12.7 mph 24.2 mph N/A   Clear
3:34 AM 44.6 °F 37.4 °F 24.8 °F 46% 30.48 in 10.0 mi SW 16.1 mph 23.0 mph N/A   Clear
3:54 AM 44.6 °F 38.8 °F 24.8 °F 46% 30.48 in 10.0 mi SW 11.5 mph - N/A   Clear
4:14 AM 44.6 °F 38.4 °F 24.8 °F 46% 30.48 in 10.0 mi SW 12.7 mph 19.6 mph N/A   Clear
4:34 AM 44.6 °F 38.4 °F 24.8 °F 46% 30.48 in 10.0 mi SW 12.7 mph 19.6 mph N/A   Clear
4:54 AM 44.6 °F 38.8 °F 24.8 °F 46% 30.47 in 10.0 mi SW 11.5 mph 19.6 mph N/A   Clear
5:14 AM 44.6 °F 37.2 °F 26.6 °F 49% 30.47 in 10.0 mi WSW 17.3 mph 20.7 mph N/A   Clear
5:34 AM 44.6 °F 39.2 °F 26.6 °F 49% 30.48 in 10.0 mi SW 10.4 mph 25.3 mph N/A   Clear
5:54 AM 44.6 °F 38.8 °F 26.6 °F 49% 30.48 in 10.0 mi SW 11.5 mph 23.0 mph N/A   Clear
6:14 AM 44.6 °F 37.4 °F 26.6 °F 49% 30.47 in 10.0 mi WSW 16.1 mph 21.9 mph N/A   Clear
6:34 AM 44.6 °F 37.2 °F 26.6 °F 49% 30.47 in 10.0 mi WSW 17.3 mph 25.3 mph N/A   Clear
6:54 AM 44.6 °F 38.1 °F 26.6 °F 49% 30.47 in 10.0 mi SW 13.8 mph 25.3 mph N/A   Clear
7:14 AM 44.6 °F 36.6 °F 26.6 °F 49% 30.47 in 10.0 mi WSW 19.6 mph 25.3 mph N/A   Clear
7:34 AM 44.6 °F 37.2 °F 26.6 °F 49% 30.47 in 10.0 mi WSW 17.3 mph 21.9 mph N/A   Clear
7:54 AM 46.4 °F 40.4 °F 26.6 °F 46% 30.48 in 10.0 mi SW 13.8 mph 20.7 mph N/A   Clear
8:14 AM 46.4 °F 39.5 °F 26.6 °F 46% 30.48 in 10.0 mi SW 17.3 mph 21.9 mph N/A   Clear
8:34 AM 48.2 °F - 26.6 °F 43% 30.47 in 10.0 mi WSW 11.5 mph 20.7 mph N/A   Clear
8:54 AM 50.0 °F - 26.6 °F 40% 30.48 in 10.0 mi SW 12.7 mph 23.0 mph N/A   Clear
9:14 AM 50.0 °F - 28.4 °F 43% 30.48 in 10.0 mi SW 13.8 mph 20.7 mph N/A   Clear
9:34 AM 51.8 °F - 28.4 °F 41% 30.48 in 10.0 mi West 12.7 mph 23.0 mph N/A   Clear
9:54 AM 51.8 °F - 28.4 °F 41% 30.48 in 10.0 mi West 17.3 mph 23.0 mph N/A   Scattered Clouds
10:14 AM 53.6 °F - 28.4 °F 38% 30.48 in 10.0 mi WSW 16.1 mph 24.2 mph N/A   Scattered Clouds
10:34 AM 53.6 °F - 28.4 °F 38% 30.48 in 10.0 mi WSW 19.6 mph 23.0 mph N/A   Scattered Clouds
10:54 AM 53.6 °F - 28.4 °F 38% 30.47 in 10.0 mi West 20.7 mph 27.6 mph N/A   Clear
11:14 AM 53.6 °F - 28.4 °F 38% 30.47 in 10.0 mi WSW 18.4 mph 29.9 mph N/A   Scattered Clouds
11:34 AM 53.6 °F - 26.6 °F 35% 30.48 in 10.0 mi WSW 21.9 mph 29.9 mph N/A   Scattered Clouds
11:54 AM 53.6 °F - 26.6 °F 35% 30.48 in 10.0 mi WSW 12.7 mph 33.4 mph N/A   Scattered Clouds
12:14 PM 53.6 °F - 26.6 °F 35% 30.47 in 10.0 mi WSW 17.3 mph 27.6 mph N/A   Scattered Clouds
12:34 PM 53.6 °F - 28.4 °F 38% 30.46 in 10.0 mi WSW 17.3 mph 25.3 mph N/A   Scattered Clouds
12:54 PM 53.6 °F - 28.4 °F 38% 30.46 in 10.0 mi West 18.4 mph 27.6 mph N/A   Scattered Clouds
1:14 PM 55.4 °F - 28.4 °F 36% 30.45 in 10.0 mi West 19.6 mph 28.8 mph N/A   Scattered Clouds
1:34 PM 55.4 °F - 28.4 °F 36% 30.45 in 10.0 mi West 16.1 mph 28.8 mph N/A   Mostly Cloudy
1:54 PM 55.4 °F - 28.4 °F 36% 30.44 in 10.0 mi West 17.3 mph 25.3 mph N/A   Mostly Cloudy
2:14 PM 53.6 °F - 28.4 °F 38% 30.44 in 10.0 mi WSW 15.0 mph 25.3 mph N/A   Mostly Cloudy
2:34 PM 59.0 °F - 28.4 °F 31% 30.43 in 10.0 mi WSW 13.8 mph 24.2 mph N/A   Mostly Cloudy
2:54 PM 55.4 °F - 26.6 °F 33% 30.42 in 10.0 mi West 20.7 mph 29.9 mph N/A   Scattered Clouds
3:14 PM 59.0 °F - 26.6 °F 29% 30.42 in 10.0 mi WSW 9.2 mph 27.6 mph N/A   Mostly Cloudy
3:34 PM 53.6 °F - 24.8 °F 33% 30.41 in 10.0 mi WSW 13.8 mph 18.4 mph N/A   Mostly Cloudy
3:54 PM 57.2 °F - 23.0 °F 27% 30.41 in 10.0 mi West 20.7 mph 26.5 mph N/A   Scattered Clouds
4:14 PM 57.2 °F - 23.0 °F 27% 30.40 in 10.0 mi West 17.3 mph - N/A   Mostly Cloudy
4:34 PM 57.2 °F - 23.0 °F 27% 30.40 in 10.0 mi West 19.6 mph 25.3 mph N/A   Scattered Clouds
4:54 PM 59.0 °F - 23.0 °F 25% 30.40 in 10.0 mi WSW 15.0 mph 20.7 mph N/A   Mostly Cloudy
5:14 PM 55.4 °F - 24.8 °F 31% 30.39 in 10.0 mi WSW 11.5 mph 18.4 mph N/A   Mostly Cloudy
5:34 PM 53.6 °F - 23.0 °F 30% 30.39 in 10.0 mi SW 5.8 mph - N/A   Scattered Clouds
5:54 PM 53.6 °F - 24.8 °F 33% 30.38 in 10.0 mi WSW 6.9 mph - N/A   Clear
6:14 PM 53.6 °F - 28.4 °F 38% 30.38 in 10.0 mi West 13.8 mph - N/A   Clear
6:34 PM 53.6 °F - 28.4 °F 38% 30.38 in 10.0 mi SW 5.8 mph - N/A   Clear
6:54 PM 53.6 °F - 26.6 °F 35% 30.37 in 10.0 mi West 13.8 mph 20.7 mph N/A   Clear
7:14 PM 50.0 °F - 26.6 °F 40% 30.36 in 10.0 mi WSW 12.7 mph 20.7 mph N/A   Clear
7:34 PM 48.2 °F - 24.8 °F 40% 30.36 in 10.0 mi WSW 13.8 mph 21.9 mph N/A   Clear
7:54 PM 48.2 °F - 24.8 °F 40% 30.36 in 10.0 mi WSW 10.4 mph - N/A   Clear
8:14 PM 50.0 °F - 24.8 °F 37% 30.36 in 10.0 mi SW 5.8 mph - N/A   Clear
8:34 PM 48.2 °F - 24.8 °F 40% 30.36 in 10.0 mi SSW 6.9 mph - N/A   Clear
8:54 PM 48.2 °F - 24.8 °F 40% 30.36 in 10.0 mi South 11.5 mph - N/A   Clear
9:14 PM 46.4 °F 41.5 °F 26.6 °F 46% 30.36 in 10.0 mi South 10.4 mph - N/A   Clear
9:34 PM 48.2 °F - 26.6 °F 43% 30.36 in 10.0 mi South 10.4 mph - N/A   Clear
9:54 PM 46.4 °F 40.4 °F 26.6 °F 46% 30.36 in 10.0 mi South 13.8 mph - N/A   Clear
10:14 PM 46.4 °F 40.7 °F 26.6 °F 46% 30.35 in 10.0 mi South 12.7 mph - N/A   Clear
10:34 PM 46.4 °F 39.5 °F 26.6 °F 46% 30.35 in 10.0 mi South 17.3 mph - N/A   Clear
10:54 PM 48.2 °F - 26.6 °F 43% 30.34 in 10.0 mi South 15.0 mph - N/A   Clear
11:14 PM 46.4 °F 39.5 °F 26.6 °F 46% 30.33 in 10.0 mi South 17.3 mph - N/A   Clear
11:34 PM 46.4 °F 39.0 °F 28.4 °F 50% 30.34 in 10.0 mi South 19.6 mph - N/A   Clear
11:54 PM 46.4 °F 38.7 °F 28.4 °F 50% 30.33 in 10.0 mi South 20.7 mph - N/A   Clear